Overview Statistics Trail Chart Weather Telemetry Raw packets
 

This is the latest recevied weather packets stored in our database for station/object OH6GKW. If no packets are shown the sender has not sent any weather packets the latest 10 day(s).

<< 31 32 33 34 35 36 37 >>
Time Temp. Humidity Pressure Rain* Wind** Luminosity Snow
1788440927 17.22° C 81% 998.3 hPa 0 mm - 76 W/m² -
1788440621 17.22° C 80% 998.3 hPa 0 mm - 63 W/m² -
1788440310 17.22° C 80% 998.4 hPa 0 mm - 62 W/m² -
1788440024 17.22° C 78% 998.4 hPa 0 mm - 65 W/m² -
1788439716 17.22° C 78% 998.4 hPa 0 mm - 65 W/m² -
1788439409 17.78° C 77% 998.2 hPa 0 mm - 65 W/m² -
1788439137 17.78° C 76% 998.2 hPa 0 mm - 72 W/m² -
1788438812 17.78° C 74% 998.2 hPa 0 mm - 83 W/m² -
1788438522 17.78° C 74% 998.2 hPa 0 mm - 93 W/m² -
1788438215 17.78° C 74% 998.2 hPa 0 mm - 250 W/m² -
1788437945 17.78° C 75% 998.2 hPa 0 mm - 250 W/m² -
1788437616 17.78° C 75% 998.4 hPa 0 mm - 130 W/m² -
1788437309 17.78° C 74% 998.4 hPa 0 mm - 137 W/m² -
1788437036 17.78° C 73% 998.4 hPa 0 mm - 155 W/m² -
1788436726 17.78° C 75% 998.6 hPa 0 mm - 301 W/m² -
1788436425 17.78° C 75% 998.6 hPa 0 mm - 315 W/m² -
1788436120 17.78° C 73% 998.6 hPa 0 mm - 201 W/m² -
1788435814 17.78° C 74% 998.5 hPa 0 mm - 169 W/m² -
1788435510 17.78° C 73% 998.5 hPa 0 mm - 185 W/m² -
1788435228 17.78° C 71% 998.5 hPa 0 mm - 150 W/m² -
1788434913 18.33° C 73% 998.5 hPa 0 mm - 111 W/m² -
1788434613 18.33° C 71% 998.5 hPa 0 mm - 197 W/m² -
1788434325 18.89° C 71% 998.5 hPa 0 mm - 267 W/m² -
1788434018 19.44° C 70% 998.7 hPa 0 mm - 185 W/m² -
1788433709 18.89° C 71% 998.7 hPa 0 mm - 679 W/m² -

* Rain since midnight (hover to see other rain measurements)
** Current wind speed in m/s (hover to see current wind gust speed)